This demonstration page uses our WeatherBlox Daily Observations layout. Learn more.

Left ArrowRight Arrow

39.01783, -85.05884

Hourly Observations for March 30, 2017

Temp ( °F °C ) Dew Point ( °F °C ) Humidity (%) Winds ( mph kmh ) Pressure ( in mb ) Visibility ( mi km ) Precip ( " mm )
12:52 am 00:52 Cloudy 53 11.7 43 6.1 69 69 ESE 14 22 29.98 1015 10 16 0.00 0.00
1:52 am 01:52 Cloudy 53 11.7 44 6.7 72 72 ESE 14 22 29.94 1014 10 16 0.00 0.00
2:52 am 02:52 Mostly Cloudy 53 11.7 44 6.7 72 72 SE 10 17 29.93 1014 10 16 0.00 0.00
3:52 am 03:52 Cloudy 53 11.7 44 6.7 72 72 ESE 10 17 29.89 1012 10 16 0.00 0.00
4:52 am 04:52 Cloudy 53 11.7 44 6.7 72 72 E 9 15 29.85 1011 10 16 0.00 0.00
5:27 am 05:27 Mostly Clear with Nearby Thunderstorms 53 11.7 44 6.7 72 72 SE 10 17 29.85 1011 10 16 0.00 0.00
5:42 am 05:42 Cloudy with Light Rain 54 12 45 7 72 72 SE 12 19 29.85 1011 10 16 0.00 0.00
5:52 am 05:52 Cloudy with Light Rain 52 11.1 46 7.8 80 80 ESE 8 13 29.84 1010 10 16 0.01 0.25
6:52 am 06:52 Cloudy 52 11.1 45 7.2 77 77 SE 9 15 29.81 1010 10 16 0.00 0.03
7:52 am 07:52 Cloudy 52 11.1 46 7.8 80 80 ESE 8 13 29.82 1010 10 16 0.00 0.00
8:52 am 08:52 Cloudy 54 12.2 48 8.9 80 80 SE 10 17 29.81 1009 10 16 0.00 0.00
9:52 am 09:52 Cloudy 58 14.4 50 10 75 75 SSE 7 11 29.80 1009 10 16 0.00 0.00
10:52 am 10:52 Cloudy 63 17.2 54 12.2 73 73 SSE 5 7 29.77 1008 10 16 0.00 0.00
11:52 am 11:52 Cloudy 70 21.1 57 13.9 64 64 S 16 26 29.73 1007 10 16 0.00 0.00
12:52 pm 12:52 Cloudy 73 22.8 56 13.3 55 55 S 17 28 29.68 1005 10 16 0.00 0.00
1:52 pm 13:52 Mostly Cloudy 77 25 52 11.1 42 42 S 21 33 29.64 1004 10 16 0.00 0.00
2:52 pm 14:52 Mostly Cloudy 78 25.6 51 10.6 39 39 SSW 15 24 29.62 1003 10 16 0.00 0.00
3:52 pm 15:52 Cloudy 77 25 50 10 39 39 SSW 21 33 29.61 1003 10 16 0.00 0.00
4:52 pm 16:52 Cloudy 76 24.4 50 10 40 40 SSW 14 22 29.59 1002 10 16 0.00 0.00
5:52 pm 17:52 Cloudy 76 24.4 50 10 40 40 SSW 17 28 29.57 1002 10 16 0.00 0.00
6:52 pm 18:52 Cloudy 75 23.9 52 11.1 45 45 SSW 15 24 29.58 1002 10 16 0.00 0.00
7:52 pm 19:52 Cloudy 73 22.8 51 10.6 46 46 SSW 18 30 29.59 1002 10 16 0.00 0.00
8:52 pm 20:52 Cloudy 71 21.7 52 11.1 51 51 SSW 8 13 29.58 1002 10 16 0.00 0.00
9:52 pm 21:52 Cloudy 68 20 52 11.1 57 57 S 3 6 29.58 1002 10 16 0.00 0.00
10:39 pm 22:39 Cloudy with Thunderstorms 69 20.6 52 11.1 55 55 SSE 3 6 29.56 1001 10 16 0.00 0.00
10:52 pm 22:52 Cloudy with Thunderstorms 65 18.3 54 12.2 68 68 S 5 7 29.60 1003 10 16 0.00 0.03
11:36 pm 23:36 Cloudy with Light Rain 57 14 55 13 94 94 SSE 3 6 29.68 1005 4 6 0.00 0.00
11:52 pm 23:52 Cloudy with Light Rain 58 14.4 56 13.3 93 93 Calm 29.63 1004 10 16 0.15 3.81

Powered by AerisWeather